Regional Weather Roundup
Issued by NWS Bismarck, ND

Home | Current Version | Previous Version | Text Only | Print | Product List | Glossary On
Versions: 1 2 3 4 5 6 7 8 9 10 11 12 13 14 15 16 17 18 19 20 21 22 23 24 25 26 27 28 29 30 31 32 33 34 35 36 37 38 39 40 41 42 43 44 45 46 47 48 49 50
000
ASUS43 KBIS 071302
RWRBIS

NWR BROADCAST TEXT
NATIONAL WEATHER SERVICE BISMARCK ND
700 AM CST WED DEC 07 2016

NOTE: "FAIR" INDICATES FEW OR NO CLOUDS BELOW 12,000 FEET WITH NO
SIGNIFICANT WEATHER AND/OR OBSTRUCTIONS TO VISIBILITY.


CITY           SKY/WX    TMP DP  RH WIND       PRES   REMARKS
WILLISTON      CLOUDY     0  -8  69 NW20G26   30.32R WCI -22
MINOT          LGT SNOW   5   0  79 W32G40    30.12R WCI -20
MINOT AFB      SNOW       3  -1  82 NW38G44   30.10S VSB 1/2 WCI -24
BISMARCK       CLOUDY     6   1  80 NW17G32   30.19R WCI -13
DICKINSON      CLOUDY     2  -4  76 NW22G33   30.19R HAZE    WCI -20
GARRISON         N/A      2  -3  80 NW29G41   30.15R WCI -23
HETTINGER ARPT CLOUDY     2  -4  76 NW24      30.21R WCI -21
JAMESTOWN      LGT SNOW   9   5  84 NW29G38   30.00R FOG     WCI -13
CARRINGTON     SNOW       7   5  92 NW33G41   30.02R VSB 1/2 WCI -18
HAZEN          LGT SNOW   5   0  78 W18G29    30.23R WCI -15
STANLEY        CLOUDY     0  -4  85 NW26G36   30.19R FOG     WCI -25
TIOGA          CLOUDY     0  -4  85 W23G29    30.22R FOG     WCI -24
WATFORD CITY   PTSUNNY    0  -8  71 W21       30.28R WCI -23
$$

CITY           SKY/WX    TMP DP  RH WIND       PRES   REMARKS
GRAND FORKS    LGT SNOW  15  10  80 NW28G33   29.89R BLWGSNOWWCI  -5
GRAND FORKS AF LGT SNOW  14   9  79 NW23G33   29.89R WCI  -5
DEVILS LAKE    LGT SNOW   9   5  84 NW35G41   29.93R FOG     WCI -15
FARGO          CLOUDY    13   6  74 W24G31    29.96R WCI  -7
GRAFTON        FAIR      16  12  86 NW28G39   29.88R WCI  -4
GWINNER        CLOUDY    12   9  85 W26G37    30.03F WCI  -8
LANGDON        LGT SNOW  10   9  92 NW28G37   29.86R VSB 3/4 WCI -11
$$

CITY           SKY/WX    TMP DP  RH WIND       PRES   REMARKS
ABERDEEN       CLOUDY     9   0  67 W25G37    30.14R WCI -12
MOBRIDGE       CLOUDY     9  -1  64 NW28G35   30.17R WCI -13
BUFFALO          N/A      2  -5  72 NW25G33   30.16R WCI -22
RAPID CITY     CLOUDY     2  -5  72 N15       30.22R WCI -17
GLASGOW        PTCLDY    -1  -9  68 W25       30.41R WCI -25
SIDNEY         CLEAR     -1  -7  75 NW15      30.36R WCI -21
WOLF POINT     CLOUDY     1  -9  62 W18       30.42R WCI -20
GLENDIVE       FLURRIES   2  -5  72 NW22      30.34R WCI -20
MILES CITY     CLOUDY     4  -6  63 NW21G31   30.37R WCI -17
BAKER          FLURRIES   1  -5  75 NW23      30.28R WCI -22
$$

CITY           SKY/WX    TMP DP  RH WIND       PRES   REMARKS
BILLINGS       PTCLDY     2  -3  80 SE3       30.33R
GREAT FALLS    CLOUDY    -3  -8  79 W5        30.41R WCI -13
$$





USA.gov is the U.S. government's official web portal to all federal, state and local government web resources and services.